Probability
0 0 0 0 0 0 0 0 0 2 5 11 23 32 33 32 29 23 23 25 22 16 13 13 13 13 15 17 18 18 18 18 17 17 19 21 21 17 16 18 20 21 18 14
0 0 0 0 0 0 0 0 0 2 5 11 21 25 23 22 19 16 15 17 15 12 9 9 9 9 10 12 13 14 14 13 12 13 14 15 15 13 11 12 14 15 13 11
0 0 0 0 0 0 0 0 0 2 4 8 13 13 13 12 12 11 9 8 7 5 3 3 3 3 5 6 7 9 8 8 9 10 9 8 8 7 6 6 6 7 7 8
0 0 0 0 0 0 0 0 0 0 1 3 3 4 6 7 8 9 6 3 2 1 1 0 0 0 1 2 3 4 4 6 8 7 6 5 4 4 4 3 2 3 3 4
0 0 0 0 0 0 0 0 0 0 0 0 0 1 2 3 4 4 2 1 1 1 1 0 0 0 1 2 2 2 2 4 5 4 4 3 3 3 2 1 1 1 1 1
0 0 0 0 0 0 0 0 0 0 0 0 0 0 0 1 1 1 0 1 1 1 0 0 0 0 1 2 3 3 3 2 2 3 4 4 3 2 1 1 1 0 0 1
0 0 0 0 0 0 0 0 0 0 0 0 0 0 0 0 0 0 0 0 0 0 0 0 0 0 1 1 2 3 3 2 1 2 4 4 4 3 2 3 3 1 1 1
0 0 0 0 0 0 0 0 0 0 0 0 0 0 0 0 0 0 0 0 0 0 0 0 0 0 0 0 1 1 2 1 0 1 3 4 4 4 4 5 4 2 1 1
0 0 0 0 0 0 0 0 0 0 0 0 0 0 0 0 0 0 0 0 0 0 0 0 0 0 0 0 0 0 0 0 0 0 1 2 2 3 3 3 3 2 1 0
0 0 0 0 0 0 0 0 0 0 0 0 0 0 0 0 0 0 0 0 0 0 0 0 0 0 0 0 0 0 0 0 0 0 0 0 0 1 1 1 1 1 0 0
0 0 0 0 0 0 0 0 0 0 0 0 0 0 0 0 0 0 0 0 0 0 0 0 0 0 0 0 0 0 0 0 0 0 0 0 0 0 0 0 0 0 0 0
0 0 0 0 0 0 0 0 0 0 0 0 0 0 0 0 0 0 0 0 0 0 0 0 0 0 0 0 0 0 0 0 0 0 0 0 0 0 0 0 0 0 0 0
0 0 0 0 0 0 0 0 0 0 0 0 0 0 0 0 0 0 0 0 0 0 0 0 0 0 0 0 0 0 0 0 0 0 0 0 0 0 0 0 0 0 0 0
0 0 0 0 0 0 0 0 0 0 0 0 0 0 0 0 0 0 0 0 0 0 0 0 0 0 0 0 0 0 0 0 0 0 0 0 0 0 0 0 0 0 0 0
0 0 0 0 0 0 0 0 0 0 0 0 0 0 0 0 0 0 0 0 0 0 0 0 0 0 0 0 0 0 0 0 0 0 0 0 0 0 0 0 0 0 0 0
0 0 0 0 0 0 0 0 0 0 0 0 0 0 0 0 0 0 0 0 0 0 0 0 0 0 0 0 0 0 0 0 0 0 0 0 0 0 0 0 0 0 0 0
0 0 0 0 0 0 0 0 0 0 0 0 0 0 0 0 0 0 0 0 0 0 0 0 0 0 0 0 0 0 0 0 0 0 0 0 0 0 0 0 0 0 0 0
0 0 0 0 0 0 0 0 0 0 0 0 0 0 0 0 0 0 0 0 0 0 0 0 0 0 0 0 0 0 0 0 0 0 0 0 0 0 0 0 0 0 0 0
0 0 0 0 0 0 0 0 0 0 0 0 0 0 0 0 0 0 0 0 0 0 0 0 0 0 0 0 0 0 0 0 0 0 0 0 0 0 0 0 0 0 0 0
0 0 0 0 0 0 0 0 0 0 0 0 0 0 0 0 0 0 0 0 0 0 0 0 0 0 0 0 0 0 0 0 0 0 0 0 0 0 0 0 0 0 0 0
0 0 0 0 0 0 0 0 0 0 0 0 0 0 0 0 0 0 0 0 0 0 0 0 0 0 0 0 0 0 0 0 0 0 0 0 0 0 0 0 0 0 0 0
0 0 0 0 0 0 0 0 0 0 0 0 0 0 0 0 0 0 0 0 0 0 0 0 0 0 0 0 0 0 0 0 0 0 0 0 0 0 0 0 0 0 0 0
0 0 0 0 0 0 0 0 0 0 0 0 0 0 0 0 0 0 0 0 0 0 0 0 0 0 0 0 0 0 0 0 0 0 0 0 0 0 0 0 0 0 0 0
0 0 0 0 0 0 0 0 0 0 0 0 0 0 0 0 0 0 0 0 0 0 0 0 0 0 0 0 0 0 0 0 0 0 0 0 0 0 0 0 0 0 0 0
0 0 0 0 0 0 0 0 0 0 0 0 0 0 0 0 0 0 0 0 0 0 0 0 0 0 0 0 0 0 0 0 0 0 0 0 0 0 0 0 0 0 0 0
0 0 0 0 0 0 0 0 0 0 0 0 0 0 0 0 0 0 0 0 0 0 0 0 0 0 0 0 0 0 0 0 0 0 0 0 0 0 0 0 0 0 0 0
Wind_Speed
2 2 4 9 8 8 6 8 9 7 4 12 14 13 9 9 10 8 7 6 6 5 4 5 4 5 5 5 5 4 4 4 3 2 2 2 1 1 1 1 1 1 1 1
4 3 9 9 7 5 4 6 6 4 6 9 13 12 7 7 6 5 4 3 2 3 3 3 2 3 3 3 3 3 3 2 2 1 1 0 1 1 1 1 1 1 1 1
4 6 7 7 5 4 2 2 2 0 6 8 8 7 6 4 3 4 3 2 2 2 4 3 2 2 3 3 3 3 2 2 2 2 1 2 2 2 2 2 2 2 2 2
3 5 5 5 4 2 3 2 0 2 6 3 2 3 3 4 5 2 1 2 3 3 3 3 3 3 3 4 3 3 3 2 1 2 2 1 1 1 2 2 2 3 3 2
4 3 3 2 4 3 3 2 3 5 6 5 6 5 4 4 4 4 4 5 4 4 4 4 4 4 3 2 2 2 2 2 1 2 2 1 1 2 2 2 3 3 4 4
3 2 1 3 4 3 0 4 6 6 6 6 4 2 3 3 5 5 5 4 4 4 3 3 2 1 1 1 1 1 1 1 1 1 1 1 3 3 3 4 3 3 3 3
6 4 2 2 5 5 4 5 4 6 6 2 2 2 5 7 7 6 6 5 3 2 2 1 1 1 0 0 1 0 0 1 2 1 2 2 3 3 4 4 4 4 3 3
2 6 4 1 1 1 2 5 5 3 3 1 2 1 7 8 6 5 5 3 2 1 2 1 1 2 1 1 1 1 1 1 2 2 3 2 2 2 3 4 4 4 3 4
3 5 4 3 1 3 2 1 4 7 4 4 1 3 7 4 6 4 2 1 1 1 2 2 2 2 2 2 1 1 1 2 3 3 3 3 3 3 4 4 4 3 3 4
5 2 5 4 4 3 3 3 5 5 5 4 1 3 4 3 3 2 2 2 2 2 2 3 3 3 2 2 1 2 2 1 2 3 3 3 4 4 4 4 4 4 4 4
3 3 5 4 2 1 3 3 4 4 5 7 3 3 4 5 5 5 4 4 3 3 3 2 2 1 1 2 2 2 3 3 3 3 3 4 4 4 4 4 5 5 5 5
3 5 1 5 4 3 2 2 5 5 2 5 5 3 1 6 5 5 4 3 3 3 2 2 1 1 2 3 3 3 3 3 3 3 3 4 5 5 5 5 6 6 6 6
5 6 3 8 9 3 1 2 5 7 6 4 5 3 1 3 3 3 4 3 3 3 2 1 1 2 2 2 3 3 4 4 4 4 4 5 6 5 6 6 6 6 6 6
6 5 5 5 7 4 1 1 4 7 5 4 5 6 2 3 3 2 2 3 3 2 1 1 1 2 3 3 3 4 4 4 5 5 5 6 6 6 6 6 6 7 6 6
5 2 1 3 3 0 2 3 5 6 7 7 7 7 6 5 4 3 3 3 3 2 1 1 1 2 3 3 4 4 5 5 5 5 6 6 6 6 6 6 7 7 7 8
4 2 3 4 3 2 3 4 6 6 7 9 8 4 4 2 3 3 3 3 2 1 1 2 2 3 3 4 4 4 5 5 5 5 6 7 6 6 7 7 7 7 7 7
2 3 2 3 5 3 2 2 5 5 5 9 6 5 3 3 4 5 4 3 2 1 1 2 3 3 4 4 4 5 5 5 5 6 7 7 7 7 7 8 7 7 7 7
5 4 3 0 4 1 4 2 11 10 5 5 6 5 5 5 5 4 4 4 2 1 1 2 3 4 4 4 4 5 5 6 6 6 7 7 7 8 8 7 8 8 7 7
5 6 3 3 1 1 1 3 7 8 3 3 6 5 4 4 4 1 2 3 3 1 1 2 3 3 3 4 5 5 6 6 6 7 7 8 8 8 8 8 9 8 7 7
3 5 5 3 2 3 6 3 6 10 2 3 5 5 4 4 2 4 3 2 1 1 1 2 3 3 4 5 5 5 6 6 7 8 8 8 8 8 9 9 9 7 6 7
1 2 2 3 2 4 5 3 5 4 7 5 6 6 5 5 6 5 3 2 1 0 1 2 3 3 4 5 4 5 6 7 8 8 8 8 8 8 8 7 7 7 7 7
6 3 3 4 3 7 5 4 6 8 6 6 6 6 5 5 4 4 3 2 1 1 2 2 3 4 5 4 4 6 7 7 7 8 8 9 8 8 8 7 8 7 6 6
4 8 6 7 8 8 5 7 7 8 8 7 7 6 7 6 4 3 2 1 0 1 2 2 3 4 5 5 4 5 7 7 8 8 9 9 9 8 7 7 7 7 5 5
3 3 4 2 3 4 5 6 6 7 8 8 8 8 7 6 5 4 2 1 1 2 3 2 3 4 5 5 5 5 7 7 7 8 9 8 8 8 8 6 5 5 5 5
5 0 2 1 2 3 2 5 8 7 7 8 7 7 8 7 5 4 3 2 2 2 2 2 2 4 5 5 6 6 6 6 7 8 8 8 7 7 7 7 5 6 5 5
3 4 5 6 9 8 8 8 9 10 9 9 8 6 6 7 6 5 4 3 2 2 2 2 3 4 5 5 6 6 6 6 7 7 7 6 6 6 6 6 7 8 7 8
Wind_Direction
292 101 249 246 226 227 267 285 293 307 47 73 79 76 63 56 60 63 61 73 84 83 82 78 83 89 84 74 72 69 69 55 54 40 25 19 356 339 343 310 237 207 213 227
0 296 263 262 260 248 254 285 298 336 86 102 96 74 50 49 58 56 52 42 85 113 102 100 104 99 98 101 97 91 86 77 77 82 76 214 258 295 295 316 316 272 243 238
215 255 305 329 339 331 292 226 276 195 76 75 97 54 20 7 29 61 46 360 322 187 159 161 162 162 152 157 160 147 148 134 115 91 61 19 19 14 1 345 324 299 272 244
254 273 313 337 340 356 298 271 179 128 93 48 56 109 323 329 333 3 316 276 272 249 189 184 191 199 199 203 186 170 172 162 153 125 100 103 94 298 271 277 286 299 294 274
270 292 342 334 292 306 242 320 56 85 98 77 31 83 301 326 308 293 266 255 252 241 213 202 204 208 204 193 175 172 161 175 196 172 161 154 215 237 259 282 297 298 298 289
250 276 233 251 277 272 215 51 47 53 67 57 346 76 287 266 254 278 274 265 249 226 209 204 208 173 164 154 141 147 138 250 270 245 218 214 246 260 279 287 288 289 287 285
335 328 320 306 339 341 64 73 34 17 33 37 310 62 264 264 260 258 270 270 263 216 187 161 126 111 130 40 348 21 61 304 302 300 288 273 265 258 256 262 262 268 274 272
0 315 310 303 158 306 7 125 146 166 165 182 328 297 261 268 274 263 255 249 244 177 131 117 119 122 101 70 58 71 53 303 308 303 289 289 279 259 259 259 257 258 253 252
186 273 300 291 236 139 54 22 151 123 102 99 283 285 294 285 288 277 271 267 200 156 132 119 100 99 95 75 61 69 48 330 311 302 295 293 291 280 274 272 265 266 264 268
161 244 305 321 28 33 132 149 85 98 125 121 174 233 237 245 240 195 151 153 140 113 104 106 101 93 81 77 54 43 37 334 317 323 314 318 297 288 282 280 280 276 271 270
118 127 319 356 38 316 15 32 97 105 133 134 152 268 226 180 169 152 158 167 159 146 130 110 96 70 51 33 23 11 357 347 336 327 318 322 312 304 297 287 280 274 269 269
144 116 304 286 264 193 167 192 132 117 74 110 123 249 235 157 160 155 165 172 150 125 120 120 93 38 21 6 354 345 333 328 313 308 313 310 306 307 304 293 286 281 276 271
124 103 41 347 343 347 225 202 136 124 105 111 127 216 228 130 144 160 157 141 124 116 102 57 19 358 334 323 319 317 315 307 304 308 312 309 305 301 295 289 288 285 278 273
112 109 148 194 239 250 288 56 108 108 112 121 152 167 194 172 167 175 149 138 132 119 106 66 338 310 304 303 304 305 304 300 306 308 305 301 295 290 287 286 288 287 281 276
99 108 259 254 253 130 127 104 98 109 143 141 167 164 196 199 187 177 146 124 103 84 54 15 310 299 300 301 300 300 299 300 304 305 300 292 289 289 290 289 288 287 284 285
89 105 25 334 325 58 75 92 95 94 107 124 133 164 210 181 139 122 126 124 111 99 328 321 320 315 305 297 295 300 300 299 301 302 297 293 294 294 292 290 287 286 284 280
115 110 75 302 313 57 35 136 106 93 122 141 152 185 175 149 153 161 162 150 157 213 287 313 306 293 292 292 292 297 296 302 308 304 302 300 298 295 292 295 296 288 284 277
138 115 122 320 22 60 248 150 116 103 85 118 131 160 169 168 172 177 173 161 169 223 284 300 293 293 292 293 297 299 305 311 310 307 305 305 303 298 295 294 291 287 282 278
139 138 125 113 109 296 239 178 149 123 101 143 140 147 145 135 96 345 200 171 180 202 231 256 270 279 296 302 301 311 313 314 312 308 306 305 304 302 301 299 294 289 285 283
82 105 120 135 142 212 236 226 133 101 120 219 147 144 146 121 87 260 225 187 167 157 257 284 300 312 314 305 310 319 312 312 309 306 304 303 301 301 300 297 293 288 284 281
77 56 141 176 185 239 236 172 102 124 221 203 157 155 155 166 197 213 195 185 145 124 301 319 329 319 303 305 318 318 311 305 300 303 305 304 303 300 296 294 291 291 291 291
177 171 196 154 165 237 223 133 156 193 185 158 155 160 155 163 163 159 159 142 104 340 319 325 327 315 305 309 319 316 309 301 304 309 310 309 307 305 310 304 300 297 296 295
175 183 181 179 205 222 193 174 178 152 152 162 159 161 148 145 156 161 153 155 232 301 304 305 311 313 311 310 313 311 304 308 314 316 314 311 310 308 304 302 302 303 301 295
274 167 128 164 234 194 164 148 154 156 156 161 153 152 147 149 157 154 165 200 252 285 291 299 316 320 314 311 313 303 303 312 317 316 313 312 313 311 310 305 300 298 299 300
246 174 108 187 199 108 155 167 164 156 143 141 146 150 151 148 155 162 177 207 231 260 275 289 303 303 302 308 315 312 312 318 319 315 312 312 309 307 308 306 296 292 282 277
237 175 167 208 201 171 197 191 163 154 160 158 152 151 151 152 161 163 181 203 216 247 266 290 303 303 302 313 315 312 314 317 318 317 315 309 308 307 307 308 311 302 291 294